Weather observations for the past three days for
Duluth - Sky Harbor Airport
Metric (Imperial)
Date Time (cdt) Wind (kph) Vis. (km) Weather Sky Cond. Temperature (ºC) Relative Humidity Wind Chill (°C) Heat Index (°C) Pressure Precipitation (cm)
Air Dwpt 6 hour altimeter (cm) sea level (mb) 1 hr 3 hr 6 hr
Max. Min.
03 06:55 E 15 16.09 Fair CLR 17 17 100% 76 0.0
03 06:35 NE 17 16.09 Fair CLR 17 17 100% 75.97 0.0
03 06:15 NE 20 16.09 Partly Cloudy SCT055 17 17 100% 75.97 0.0
03 05:55 NE 19 16.09 Overcast FEW044 OVC055 17 17 100% 75.97 0.0
03 05:35 NE 11 16.09 Overcast FEW038 FEW043 OVC055 17 17 100% 75.97 0.0
03 05:15 E 13 16.09 Mostly Cloudy FEW037 FEW043 BKN050 17 17 100% 75.95 0.0
03 04:55 Calm 16.09 Partly Cloudy FEW035 SCT049 SCT055 17 17 100% 75.97 0.0
03 04:35 Vrbl 7 16.09 A Few Clouds FEW044 FEW050 17 17 100% 75.95 0.0
03 04:15 Vrbl 6 16.09 Fair CLR 17 17 100% 75.95 0.0
03 03:55 E 11 16.09 Fair CLR 18 17 94% 75.92 0.0
03 03:35 NE 13 16.09 Fair CLR 18 17 94% 75.95 0.0
03 03:15 NE 15 16.09 Fair CLR 18 16 88% 75.95 0.0
03 02:55 NE 13 16.09 Fair CLR 18 17 94% 75.95 0.0
03 02:35 NE 13 16.09 Fair CLR 18 17 94% 75.97 0.0
03 02:15 NE 9 16.09 Fair CLR 18 17 94% 75.97 0.0
03 01:55 NE 17 16.09 A Few Clouds FEW100 18 17 94% 75.97 0.0
03 01:35 NE 13 16.09 Mostly Cloudy BKN110 18 17 94% 75.97 0.0
03 01:15 NE 13 16.09 Mostly Cloudy BKN120 18 17 94% 76 0.0
03 00:55 E 9 16.09 Mostly Cloudy FEW100 BKN120 19 16 83% 76 0.0
03 00:35 E 7 16.09 Fair CLR 19 17 88% 76 0.0
03 00:15 Calm 16.09 Partly Cloudy FEW050 SCT100 19 18 94% 75.97 0.0
02 23:55 Vrbl 7 16.09 Partly Cloudy FEW049 SCT100 19 18 94% 75.97 0.0
02 23:35 NE 11 16.09 A Few Clouds FEW049 FEW055 19 17 88% 75.97 0.0
02 23:15 NE 15 16.09 Partly Cloudy FEW050 SCT110 19 17 88% 75.97 0.0
02 22:55 NE 15 16.09 Mostly Cloudy BKN110 19 18 94% 75.97 0.0
02 22:35 Calm 16.09 Mostly Cloudy BKN110 19 18 94% 75.95 0.0
02 22:15 NE 13 16.09 Fair CLR 19 18 94% 75.97 0.0
02 21:55 NE 15 16.09 A Few Clouds FEW049 20 17 83% 75.95 0.0
02 21:35 NE 6 16.09 Fair CLR 20 17 83% 75.95 0.0
02 21:15 N 7 16.09 Fair CLR 20 17 83% 75.92 0.0
02 20:55 N 7 16.09 Fair CLR 20 17 83% 75.92 0.0
02 20:35 N 6 16.09 Fair CLR 20 17 83% 75.9 0.0
02 20:15 N 9 16.09 Fair CLR 19 17 88% 75.9 0.0
02 19:55 Calm 16.09 Fair CLR 20 17 83% 75.87 0.0
02 19:35 Calm 14.48 Fair CLR 20 18 88% 75.9 0.0
02 19:15 Calm 16.09 Fair CLR 20 18 88% 75.87 0.0
02 18:55 Calm 16.09 Fair CLR 20 18 88% 75.87 0.0
02 18:35 E 7 16.09 Fair CLR 20 18 88% 75.87 0.0
02 18:15 E 11 16.09 Fair CLR 20 18 88% 75.87 0.0
02 17:55 Vrbl 6 16.09 Fair CLR 21 17 78% 75.87 0.0
02 17:35 E 7 16.09 Fair CLR 21 17 78% 75.84 0.0
02 17:15 NE 7 16.09 Fair CLR 20 18 88% 75.87 0.0
02 16:55 Vrbl 6 16.09 Fair CLR 21 18 83% 75.87 0.0
02 16:35 Vrbl 6 16.09 Fair CLR 21 18 83% 75.87 0.0
02 16:15 NE 13 16.09 NULL NULL 21 18 83% 75.87 0.0
02 15:35 N 11 16.09 Fair CLR 22 18 78% 75.87 0.0
02 15:15 Vrbl 9 16.09 Fair CLR 23 17 69% 75.87 0.0
02 14:55 E 7 16.09 Fair CLR 22 17 73% 75.9 0.0
02 14:35 E 9 16.09 Fair CLR 22 17 73% 75.9 0.0
02 14:15 NE 7 16.09 Fair CLR 21 18 83% 75.92 0.0
02 13:55 NE 11 16.09 Fair CLR 21 17 78% 75.92 0.0
02 13:35 E 9 16.09 Fair CLR 22 17 73% 75.92 0.0
02 13:15 E 9 16.09 Fair CLR 21 17 78% 75.92 0.0
02 12:55 E 11 16.09 NULL NULL 21 17 78% 75.92 0.0
02 12:35 E 9 16.09 Fair CLR 21 17 78% 75.95 0.0
02 12:15 NE 9 16.09 Fair CLR 21 17 78% 75.97 0.0
02 11:55 NE 9 16.09 Fair CLR 21 17 78% 75.97 0.0
02 11:35 NE 11 16.09 NULL NULL 21 17 78% 75.97 0.0
02 11:15 NE 9 16.09 NULL NULL 21 17 78% 75.97 0.0
02 10:55 Calm 16.09 Fair CLR 21 16 73% 75.97 0.0
02 10:35 Calm 16.09 Fair CLR 21 16 73% 75.97 0.0
02 10:15 E 7 16.09 Fair CLR 20 16 78% 75.95 0.0
02 09:55 E 7 16.09 Fair CLR 20 16 78% 75.95 0.0
02 09:35 E 6 16.09 Fair CLR 20 16 78% 75.97 0.0
02 09:15 E 6 16.09 Fair CLR 19 17 88% 75.97 0.0
02 08:55 Calm 16.09 Fair CLR 19 17 88% 76 0.0
02 08:35 Calm 16.09 Fair CLR 19 17 88% 76 0.0
02 08:15 SW 7 16.09 Fair CLR 19 17 88% 76 0.0
02 07:55 SW 7 16.09 Fair CLR 18 17 94% 76 0.0
02 07:35 Calm 16.09 Fair CLR 18 17 94% 76 0.0
02 07:15 S 6 12.87 Fair CLR 17 17 100% 75.97 0.0
02 06:55 Calm 16.09 Fair CLR 17 17 100% 75.95 0.0
02 06:35 Calm 16.09 Fair CLR 18 17 94% 75.95 0.0
02 06:15 Calm 16.09 Fair CLR 18 17 94% 75.92 0.0
02 05:55 W 6 16.09 Fair CLR 18 17 94% 75.92 0.0
02 05:35 Calm 16.09 A Few Clouds FEW048 18 16 88% 75.92 0.0
02 05:15 SW 11 16.09 Fair CLR 18 16 88% 75.95 0.0
02 04:55 SW 11 16.09 A Few Clouds FEW041 18 17 94% 75.97 0.0
02 04:35 S 7 16.09 Fair CLR 18 17 94% 75.95 0.0
02 04:15 S 7 16.09 Fair CLR 19 17 88% 75.92 0.0
02 03:55 S 6 16.09 Fair CLR 19 16 83% 75.92 0.0
02 03:35 Calm 16.09 Fair CLR 19 17 88% 75.9 0.0
02 03:15 S 7 16.09 A Few Clouds FEW120 19 17 88% 75.9 0.0
02 02:55 S 9 16.09 A Few Clouds FEW120 19 17 88% 75.92 0.0
02 02:35 S 7 16.09 A Few Clouds FEW120 19 17 88% 75.92 0.0
02 02:15 Calm 16.09 A Few Clouds FEW120 19 16 83% 75.92 0.0
02 01:55 SW 9 16.09 A Few Clouds FEW046 19 17 88% 75.92 0.0
02 01:35 SW 11 16.09 Fair CLR 19 17 88% 75.92 0.0
02 01:15 SW 7 16.09 Partly Cloudy SCT120 20 17 83% 75.92 0.0
02 00:55 S 6 16.09 Partly Cloudy SCT110 20 17 83% 75.92 0.0
02 00:35 SW 7 16.09 Mostly Cloudy FEW055 FEW080 BKN110 21 16 73% 75.95 0.0
02 00:15 W 7 16.09 Mostly Cloudy FEW050 SCT075 BKN095 21 16 73% 75.95 0.0
01 23:55 SW 6 16.09 Fair CLR 21 16 73% 75.95 0.0
01 23:35 W 13 16.09 Fair CLR 21 16 73% 75.95 0.0
01 23:15 W 17 16.09 Fair CLR 21 16 73% 75.97 0.0
01 22:55 W 13 16.09 Fair CLR 21 16 73% 75.95 0.0
01 22:35 Calm 16.09 Fair CLR 22 16 69% 75.95 0.0
01 22:15 W 15 16.09 Fair CLR 22 17 73% 75.92 0.0
01 21:55 W 11 16.09 Fair CLR 22 17 73% 75.92 0.0
01 21:35 W 9 16.09 Fair CLR 22 17 73% 75.92 0.0
01 21:15 W 11 16.09 Fair CLR 22 17 73% 75.92 0.0
01 20:55 SW 11 16.09 Fair CLR 22 16 69% 75.92 0.0
01 20:35 SW 11 16.09 Fair CLR 23 16 65% 75.9 0.0
01 20:15 SW 13 16.09 Fair CLR 23 16 65% 75.9 0.0
01 19:55 SW 15 16.09 Fair CLR 23 16 65% 75.87 0.0
01 19:35 SW 15 16.09 Fair CLR 24 16 61% 25 75.87 0.0
01 19:15 SW 15 16.09 Fair CLR 25 16 57% 26 75.84 0.0
01 18:55 SW 19 16.09 Fair CLR 25 16 57% 26 75.84 0.0
01 18:35 SW 20 G 30 16.09 Fair CLR 26 16 54% 27 75.84 0.0
01 18:15 SW 22 16.09 Fair CLR 26 16 54% 27 75.84 0.0
01 17:55 SW 22 G 33 16.09 Fair CLR 27 15 48% 27 75.84 0.0
01 17:35 SW 19 12.87 Fair CLR 27 15 48% 27 75.84 0.0
01 17:15 W 17 G 26 16.09 Fair CLR 27 14 45% 27 75.82 0.0
01 16:55 W 22 16.09 Fair CLR 27 13 42% 27 75.82 0.0
01 16:35 W 24 16.09 Fair CLR 27 14 45% 27 75.82 0.0
01 16:15 W 24 16.09 Fair CLR 27 14 45% 27 75.82 0.0
01 15:55 W 31 16.09 Fair CLR 28 13 40% 28 75.82 0.0
01 15:35 W 31 16.09 Fair CLR 28 13 40% 28 75.79 0.0
01 15:15 W 26 G 39 16.09 Fair CLR 29 12 35% 28 75.82 0.0
01 14:55 W 31 G 43 16.09 Fair CLR 29 12 35% 28 75.82 0.0
01 14:35 W 28 G 43 16.09 Fair CLR 29 13 37% 28 75.84 0.0
01 14:15 W 33 G 44 16.09 Fair and Breezy CLR 28 13 40% 28 75.84 0.0
01 13:55 W 26 G 37 16.09 Fair CLR 28 13 40% 28 75.84 0.0
01 13:35 W 33 G 44 16.09 Fair and Breezy CLR 28 12 37% 27 75.87 0.0
01 13:15 W 26 G 35 16.09 NULL NULL 28 13 40% 28 75.9 0.0
01 12:35 SW 28 16.09 Fair CLR 27 14 45% 27 75.92 0.0
01 12:15 W 15 G 31 16.09 Fair CLR 27 14 45% 27 75.95 0.0
01 11:55 W 22 G 33 16.09 Fair CLR 27 15 48% 27 75.95 0.0
01 11:35 SW 15 16.09 Fair CLR 26 17 58% 27 75.95 0.0
01 11:15 SW 11 16.09 Fair CLR 25 16 57% 26 75.95 0.0
01 10:55 W 11 16.09 Fair CLR 25 16 57% 26 75.97 0.0
01 10:35 SW 17 16.09 Fair CLR 24 16 61% 25 75.97 0.0
01 10:15 SW 13 16.09 Fair CLR 23 16 65% 76 0.0
01 09:55 SW 15 16.09 Fair CLR 22 16 69% 76 0.0
01 09:35 SW 19 16.09 Fair CLR 21 16 73% 75.97 0.0
01 09:15 SW 17 16.09 Fair CLR 21 16 73% 75.97 0.0
01 08:55 SW 13 16.09 Fair CLR 20 16 78% 75.97 0.0
01 08:35 SW 17 16.09 Fair CLR 19 16 83% 75.97 0.0
01 08:15 SW 19 16.09 Fair CLR 18 16 88% 75.97 0.0
01 07:55 SW 20 16.09 Fair CLR 18 16 88% 75.97 0.0
01 07:35 SW 19 16.09 Fair CLR 18 15 83% 75.95 0.0
01 07:15 S 19 16.09 Fair CLR 17 16 94% 75.95 0.0
01 06:55 S 15 16.09 Fair CLR 17 16 94% 75.92 0.0
01 06:35 S 15 16.09 Fair CLR 17 16 94% 75.9 0.0
01 06:15 S 17 16.09 Fair CLR 17 16 94% 75.87 0.0
01 05:55 SW 13 16.09 Fair CLR 17 16 94% 75.87 0.0
01 05:35 SW 17 16.09 A Few Clouds FEW050 FEW055 17 16 94% 75.87 0.0
01 05:15 SW 19 16.09 A Few Clouds FEW049 FEW055 17 16 94% 75.84 0.0
01 04:55 SW 15 16.09 NULL NULL 17 16 94% 75.84 0.0
01 04:35 SW 19 16.09 NULL NULL 17 16 94% 75.84 0.0
01 04:15 SW 13 16.09 A Few Clouds FEW049 17 17 100% 75.84 0.0
01 03:55 SW 11 16.09 A Few Clouds FEW050 17 17 100% 75.84 0.0
01 03:35 SW 13 16.09 Fair CLR 18 17 94% 75.84 0.0
01 03:15 SW 15 16.09 Fair CLR 18 17 94% 75.84 0.0
01 02:55 SW 15 16.09 Fair CLR 18 17 94% 75.84 0.0
01 02:35 SW 15 16.09 Fair CLR 18 17 94% 75.87 0.0
01 02:15 SW 15 16.09 A Few Clouds FEW045 FEW050 18 18 100% 75.87 0.0
01 01:55 SW 7 16.09 A Few Clouds FEW038 FEW046 FEW050 18 18 100% 75.87 0.0
01 01:35 Calm 16.09 A Few Clouds FEW038 FEW046 18 18 100% 75.87 0.0
01 01:15 SW 6 16.09 Partly Cloudy FEW042 SCT048 18 18 100% 75.9 0.0
01 00:55 Calm 16.09 Partly Cloudy SCT043 SCT048 19 18 94% 75.87 0.0
01 00:35 Calm 16.09 A Few Clouds FEW045 19 18 94% 75.87 0.0
01 00:15 SW 6 16.09 Fair CLR 19 18 94% 75.87 0.0
31 23:55 SW 7 16.09 Fair CLR 19 18 94% 75.87 0.0
31 23:35 Calm 16.09 Fair CLR 20 18 88% 75.87 0.0
31 23:15 SW 7 16.09 Fair CLR 20 19 94% 75.87 0.0
31 22:55 S 7 16.09 Fair CLR 20 18 88% 75.84 0.0
31 22:35 Calm 16.09 Fair CLR 21 18 83% 75.84 0.0
31 22:20 Calm 16.09 Fair CLR 21 19 88% 75.82 0.0
31 21:55 Calm 16.09 Fair CLR 21 20 94% 75.84 0.0
31 21:35 Calm 16.09 Fair CLR 20 20 100% 75.82 0.0
31 21:15 SW 6 16.09 NULL NULL 20 20 100% 75.82 0.0
31 20:55 Calm 16.09 Fair CLR 0 0 0% 75.82 0.0
31 20:35 Calm 16.09 Fair CLR 20 19 94% 75.79 0.0
31 20:15 Calm 16.09 Fair CLR 19 19 100% 75.79 0.0
31 19:55 Calm 16.09 Fair CLR 20 19 94% 75.77 0.0
31 19:35 Calm 16.09 Fair CLR 19 19 100% 75.77 0.0
31 19:15 Calm 16.09 Fair CLR 20 19 94% 75.77 0.0
31 18:55 Calm 16.09 Fair CLR 19 19 100% 75.77 0.0
31 18:35 Calm 14.48 Fair CLR 20 19 94% 75.74 0.0
31 18:15 Calm 14.48 Fair CLR 19 19 100% 75.74 0.0
31 17:35 NE 7 14.48 Fair CLR 20 20 100% 75.74 0.0
31 17:15 E 7 12.87 Fair CLR 20 19 94% 75.74 0.0
31 16:55 Calm 12.87 Fair CLR 20 19 94% 75.74 0.0
31 16:35 E 6 12.87 Fair CLR 19 19 100% 75.74 0.0
31 16:15 Calm 9.66 Fog/Mist CLR 19 19 100% 75.74 0.0
31 15:55 NE 7 4.02 Fog/Mist SCT002 19 19 100% 75.74 0.0
31 15:35 NE 6 0.40 Light Rain Fog OVC002 19 18 94% 75.77 0.0
31 15:15 NE 7 0.40 Light Rain Fog OVC003 18 18 100% 75.74 0.0
31 14:55 NE 7 0.80 Light Rain Fog OVC003 18 18 100% 75.77 0.0
31 14:35 NE 9 0.80 Light Rain Fog OVC003 19 19 100% 75.77 0.0
31 14:15 E 9 2.82 Unknown Precip Fog/Mist OVC003 19 19 100% 75.77 0.0
31 13:55 NE 9 6.44 Fog/Mist OVC003 19 19 100% 75.77 0.0
31 13:35 NE 9 4.83 Fog/Mist BKN004 OVC022 19 19 100% 75.77 0.0
31 13:15 Vrbl 9 2.41 Unknown Precip Fog/Mist OVC004 19 18 94% 75.77 0.0
31 12:55 NE 9 0.80 Light Rain Fog/Mist OVC003 18 18 100% 75.77 0.0
31 12:35 E 11 1.21 Unknown Precip Fog/Mist OVC003 19 19 100% 75.74 0.0
31 12:15 NE 9 0.80 Unknown Precip Fog/Mist OVC003 18 18 100% 75.77 0.0
31 11:55 NE 11 0.80 Unknown Precip Fog OVC003 19 19 100% 75.77 0.0
31 11:35 NE 9 0.40 Light Rain Fog OVC003 19 19 100% 75.74 0.0
31 11:15 E 7 1.21 Fog/Mist OVC003 19 19 100% 75.74 0.0
31 10:55 Calm 2.01 Fog/Mist OVC003 19 19 100% 75.74 0.0
31 10:35 Calm 4.02 Fog/Mist OVC003 19 19 100% 75.72 0.0
31 10:15 Calm 4.83 Fog/Mist OVC003 19 19 100% 75.69 0.0
31 09:55 Calm 4.83 Fog/Mist OVC003 19 19 100% 75.69 0.0
31 09:35 Calm 4.83 Fog/Mist OVC004 18 18 100% 75.67 0.0
31 09:15 Calm 3.22 Fog/Mist OVC003 18 18 100% 75.67 0.0
31 08:55 Calm 2.82 Fog/Mist OVC003 18 18 100% 75.64 0.0
31 08:35 E 9 2.01 Fog/Mist OVC003 18 18 100% 75.64 0.0
31 08:15 E 9 1.61 Fog/Mist OVC003 18 18 100% 75.64 0.0
31 07:55 Calm 1.61 Unknown Precip Fog/Mist OVC002 18 18 100% 75.67 0.0
31 07:35 E 11 1.21 Unknown Precip Fog/Mist OVC003 17 17 100% 75.67 0.0
31 07:15 E 13 2.41 Fog/Mist OVC003 17 17 100% 75.64 0.0
Date Time (cdt) Wind (kph) Vis. (km) Weather Sky Cond. Air Dwpt Max. Min. Relative Humidity Wind Chill (°C) Heat Index (°C) altimeter (cm) sea level (mb) 1 hr 3 hr 6 hr
6 hour
Temperature (ºC) Pressure Precipitation (cm)